Tracking 19817 objects as of 19-Aug-2019
HD Live streaming from Space Station
objects crossing your sky now

COSMOS 2251 DEB

Track COSMOS 2251 DEB now!
10-day predictions


NORAD ID: 37311
Int'l Code: 1993-036BKB
Perigee: 534.0 km
Apogee: 720.7 km
Inclination: 74.0 °
Period: 97.1 minutes
Semi major axis: 6998 km
RCS: 0.0083 m2 (small)
Launch date: June 16, 1993
Source: Commonwealth of Independent States (former USSR) (CIS)
Launch site: PLESETSK MISSILE AND SPACE COMPLEX (PKMTR)

Note: This is SATELLITE DEBRIS
aabbcc
Your satellite tracking list
Your tracking list is empty




NASA's NSSDC Master Catalog

Two Line Element Set (TLE):
1 37311U 93036BKB 11258.86531244 -.00020188 +00000-0 -21279-2 0  9990
2 37311 073.9940 324.0704 0133391 006.6441 354.3690 14.82900929087560
Source of the keplerian elements: AFSPC